Tracking 25709 objects as of 23-May-2022
HD Live streaming from Space Station
objects crossing your sky now

SL-12 R/B(AUX MOTOR)

Track SL-12 R/B(AUX MOTOR) now!
10-day predictions


NORAD ID: 32281
Int'l Code: 2007-052G
Perigee: 765.7 km
Apogee: 18,759.9 km
Inclination: 65.4 °
Period: 339.9 minutes
Semi major axis: 16133 km
RCS: 0.5624 m2 (medium)
Launch date: October 26, 2007
Source: Commonwealth of Independent States (former USSR) (CIS)
Launch site: TYURATAM MISSILE AND SPACE COMPLEX (TTMTR)

Note: This is a ROCKET BODY
aabbcc
Your satellite tracking list
Your tracking list is empty




NASA's NSSDC Master Catalog

Two Line Element Set (TLE):
1 32281U 07052G   22141.81546579  .00000034  00000-0  10072-4 0  9996
2 32281  65.4138  94.5444 5576534 282.5175  23.2395  4.23640743224904
Source of the keplerian elements: AFSPC